Find Starlink 37634

NORAD ID: 69028 Int'l Des: 2026-101 Owner: SPXS Country: US Constellation: starlink operational
LEOCIRCULARRETROGRADE

現在のビュー

3D地球を読み込み中...

About Starlink 37634

Starlink 37634 (NORAD 69028) is a starlink constellation satellite (v2 mini) launched May 6, 2026 by SPXS of US. It operates in LEO, CIRCULAR, RETROGRADE orbit with a mass of 575.00 kg.

次回通過

Passes for default location (London). Set your location on the main map for personalized predictions.

高度履歴

Loading altitude history...

軌道要素

1 69028U 26101D 26235.05590389 .00012126 00000-0 37724-3 0 9990
2 69028 97.2873 89.0044 0002265 58.7264 301.4201 15.33452418 16829
Epoch: Aug 23, 2026 • Age: 32 hours

現在のステータス

高度 485.6 km
遠地点 / 近地点 N/A
速度 7.62 km/s
衛星直下点 -47.93°S, 144.71°E
打ち上げ日 May 6, 2026
運用期間 0.3 years
タイプ internet

技術仕様

分類 Payload
質量 575.00 kg
乾燥質量 530.00 kg
総質量 575.00 kg
長さ 0.30 m
直径 4.10 m
スパン 29.00 m
形状 Box + pan
製造者 SPXS
バスタイプ Starlink V2MO
フェーズステータス In Orbit
所有者/国 SPXS/US

Most Searched